Regional Weather Roundup
Issued by NWS

Home | Current Version | Previous Version | Graphics & Text | Print | Product List | Glossary On
Versions: 1 2 3 4 5 6 7 8 9 10 11 12 13 14 15 16 17 18 19 20 21 22 23 24 25 26 27 28 29 30 31 32 33 34 35 36 37 38 39 40 41 42 43 44 45 46 47 48 49 50
693
ASUS43 KMPX 061401
RWRMN
WEATHER ROUNDUP FOR MINNESOTA
NATIONAL WEATHER SERVICE TWIN CITIES/CHANHASSEN MN
800 AM CST TUE DEC 06 2016


NOTE: "FAIR" INDICATES FEW OR NO CLOUDS BELOW 12,000 FEET WITH NO
SIGNIFICANT WEATHER AND/OR OBSTRUCTIONS TO VISIBILITY. N/A MEANS
CURRENT SKY AND/OR WEATHER CONDITIONS ARE NOT AVAILABLE.

MNZ060>063-068>070-061500-
   Twin Cities Metro

CITY           SKY/WX    TMP DP  RH WIND       PRES   REMARKS
TWIN CITIES    CLOUDY    23  12  62 W16G29    29.73S WCI  10
ST PAUL        MOCLDY    23  15  71 W16G23    29.75R WCI  10
CRYSTAL        CLOUDY    22  12  65 SW17G23   29.71F WCI   8
BLAINE         CLOUDY    25  16  68 SW14G21   29.70F WCI  13
LAKEVILLE      MOCLDY    19  16  86 W14G23    29.75S WCI   6
EDEN PRAIRIE   CLOUDY    22  13  68 SW14G30   29.73S WCI   9
SOUTH ST PAUL  MOCLDY    24  15  69 SW13      29.74S WCI  12
LAKE ELMO      CLOUDY    27  18  69 SW15G23   29.72F WCI  15
$$
MNZ001>005-007-008-013>017-022>024-027-028-061500-
   Northwest Minnesota

CITY           SKY/WX    TMP DP  RH WIND       PRES   REMARKS
BEMIDJI        CLOUDY    19  14  84 S17G24    29.40F WCI   3
HALLOCK        LGT SNOW  27  25  93 E14       29.29R WCI  15
ROSEAU         CLOUDY    25  21  86 SE10      29.35S WCI  15
WARROAD        CLOUDY    27  21  80 SE16      29.37S WCI  14
THIEF RVR FALL LGT SNOW  21  19  92 SE21G28   29.29F FOG     WCI   5
CROOKSTON      LGT SNOW  27  27 100 S7        29.28F WCI  19
FOSSTON        LGT SNOW  18  16  93 S20       29.34F WCI   1
DETROIT LAKES  LGT SNOW  21  19  93 S16G25    29.39F WCI   7
MOORHEAD       RAIN      28  27  93 W22G28    29.39S WCI  15
PARK RAPIDS    LGT SNOW  19  11  70 S21G26    29.44F WCI   3
$$
MNZ006-009>011-018-025>026-061500-
   North Central Minnesota

CITY           SKY/WX    TMP DP  RH WIND       PRES   REMARKS
BAUDETTE       CLOUDY    25  18  74 S13       29.39S WCI  14
FLAG ISLAND    CLOUDY    28  25  86 S26       29.37R WCI  13
INTL FALLS     CLOUDY    28  22  78 S10G18    29.43F WCI  19
BIG FORK       CLOUDY    23  18  80 S14G26    29.46S WCI  11
LONGVILLE      CLOUDY    19  14  79 S13G26    29.49F WCI   7
GRAND RAPIDS   FLURRIES  21  15  78 SW13G24   29.52S WCI   9
CRANE LAKE     CLOUDY    30  27  86 S10G21    29.48S WCI  21
ORR            CLOUDY    28  21  74 S13       29.43F WCI  18
COOK           CLOUDY    27  21  80 S13G22    29.47F WCI  16
$$
MNZ012-019>021-037-061500-
   Northeast Minnesota

CITY           SKY/WX    TMP DP  RH WIND       PRES   REMARKS
DULUTH         CLOUDY    28  22  78 SW16G25   29.53F WCI  16
ELY            FLURRIES  30  28  93 S8        29.47F WCI  23
HIBBING        CLOUDY    23  18  81 S13G23    29.49F WCI  11
EVELETH        CLOUDY    28  21  78 SW17      29.51S WCI  15
DULUTH HARBOR  CLOUDY    32  27  80 SW13G23   29.58F WCI  22
TWO HARBORS    LGT SNOW  34  28  80 SW12G17   29.53F WCI  25
SILVER BAY     LGT SNOW  32  30  93 SW8       29.53S WCI  25
G MARAIS ARPRT MIX PCPN  30  27  86 S9G22     29.53F VSB 1   WCI  22
$$
MNZ029>031-032-039>041-046>048-054>057-064-061500-
   West Central Minnesota

CITY           SKY/WX    TMP DP  RH WIND       PRES   REMARKS
FERGUS FALLS   LGT SNOW  21  19  93 SW21G29   29.51F WCI   6
WHEATON        CLOUDY    21  18  86 SW24G30   29.58S FOG     WCI   4
MORRIS         LGT SNOW  18  16  93 SW25G32   29.58F WCI  -1
ALEXANDRIA     LGT SNOW  17  13  84 SW26G32   29.55F FOG     WCI  -2
ELBOW LAKE     LGT SNOW  18  16  93 SW23G31   29.53F VSB 1   WCI   0
WADENA         LGT SNOW  16  12  86 S18       29.48F WCI  -1
GLENWOOD       LGT SNOW  18  12  79 SW30G36   29.59F WCI  -2
BENSON         LGT SNOW  18  10  73 W24G31    29.64F WCI   0
ORTONVILLE     CLOUDY    18  10  73 W21G35    29.63S WCI   1
MADISON        CLOUDY    19  12  73 W28G38    29.70S WCI   1
WILLMAR        CLOUDY    19  14  79 W24G33    29.69S WCI   2
$$
MNZ033>034-036-042>043-049>051-058-059-061500-
   Central Minnesota

CITY           SKY/WX    TMP DP  RH WIND       PRES   REMARKS
ST CLOUD       CLOUDY    19  12  74 SW20G26   29.66S WCI   3
PAYNESVILLE    FLURRIES  19  14  82 SW16G30   29.66S WCI   4
AITKIN         MIX PCPN  23  12  63 SW16G28   29.54R WCI  10
PINE RIVER     FLURRIES  19  14  79 S18G28    29.55F WCI   4
BRAINERD       CLOUDY    19  13  77 S21G26    29.56F WCI   3
STAPLES        FLURRIES  18  12  79 S15G23    29.52F WCI   3
LONG PRAIRIE   FLURRIES  18  12  79 S21G28    29.58F WCI   1
LITTLE FALLS   FLURRIES  19  12  73 SW14G31   29.60F WCI   6
LITCHFIELD     MIX PCPN  19  12  73 SW10G21   29.69F WCI   8
BUFFALO        CLOUDY    20  14  75 SW16      29.72S WCI   6
MAPLE LAKE     CLOUDY    20  14  78 SW17G26   29.70S WCI   6
$$
MNZ037-044-045-052-053-061500-
   East Central Minnesota

CITY           SKY/WX    TMP DP  RH WIND       PRES   REMARKS
PRINCETON      CLOUDY    23  16  74 S13G20    29.65F WCI  11
MORA           CLOUDY    23  18  80 SW13G23   29.64F WCI  11
CAMBRIDGE      CLOUDY    25  14  63 SW15G21   29.65S WCI  12
RUSH CITY      MOCLDY    23  16  74 SW10G18   29.66F WCI  12
MOOSE LAKE     CLOUDY    25  18  74 SW15G25   29.57S WCI  12
HINCKLEY       CLOUDY    27  19  74 SW13G23   29.62F WCI  16
CLOQUET        CLOUDY    27  19  74 S12       29.54F WCI  16
MCGREGOR       CLOUDY    23  18  80 S13       29.55F WCI  11
$$
MNZ071>073-080-081-089-090-097-098-061500-
   Southwest Minnesota

CITY           SKY/WX    TMP DP  RH WIND       PRES   REMARKS
MONTEVIDEO     CLOUDY    19  10  68 W20G31    29.71F WCI   4
GRANITE FALLS  CLOUDY    19  12  72 SW24G35   29.74F WCI   2
CANBY          CLOUDY    18  10  72 SW28G38   29.73R WCI  -1
MARSHALL       FAIR      16   8  71 W30G38    29.74F WCI  -4
REDWOOD FALLS  MOCLDY    18   8  65 W22       29.75S WCI   1
OLIVIA         MOCLDY    21  14  73 W20G28    29.72S WCI   6
PIPESTONE      FAIR      16   9  73 W24G36    29.78S WCI  -3
WINDOM         FLURRIES  18  10  73 W24       29.77F WCI   0
WORTHINGTON    FLURRIES  16   9  74 W25G39    29.81R WCI  -3
JACKSON        FLURRIES  18  10  73 W21G31    29.80F WCI   1
TRACY          FLURRIES  18  11  75 W20G25    29.76F WCI   1
SLAYTON        FLURRIES  15   9  78 W24G37    29.77S WCI  -4
$$
MNZ065>067-074>077-082>085-091>093-061500-
   South Central Minnesota

CITY           SKY/WX    TMP DP  RH WIND       PRES   REMARKS
MANKATO        FLURRIES  19  12  74 W21       29.78F WCI   3
NEW ULM        CLOUDY    18  10  73 W21G26    29.78F WCI   1
ST JAMES       MOCLDY    18  10  73 SW22        N/A  WCI   0
FAIRMONT       FAIR      18  11  74 W15G25    29.83R WCI   4
GLENCOE        FAIR      20  15  81 SW15G24   29.74S WCI   7
FARIBAULT      CLOUDY    21  16  79 SW17G24   29.77S WCI   7
OWATONNA       MOCLDY    21  16  79 SW20      29.77S WCI   6
WASECA         CLOUDY    23  18  80 SW23G30   29.80S WCI   7
ALBERT LEA     FAIR      25  18  74 W13G20    29.79S WCI  13
$$
MNZ078>079-086>088-094>096-061500-
   Southeast Minnesota

CITY           SKY/WX    TMP DP  RH WIND       PRES   REMARKS
ROCHESTER      CLOUDY    25  21  85 W22       29.74S WCI  10
RED WING       CLOUDY    28  19  69 W14G23    29.73S WCI  17
STANTON        FAIR      24  16  69 W15G22    29.75S WCI  12
DODGE CENTER   FAIR      21  18  86 W22       29.75S WCI   5
WINONA         LGT SNOW  34  32  93 W6        29.75R WCI  29
AUSTIN         FAIR      21  18  86 W15G23    29.78R WCI   8
PRESTON        CLOUDY    26  20  80 W16G24    29.75S WCI  13
$$
ABBREVIATIONS USED IN REMARKS
   TC - TEMPERATURES IN CELSIUS
  WCI - WIND CHILL INDEX
   HX - HEAT INDEX
  VSB - VISIBILITY
$$




USA.gov is the U.S. government's official web portal to all federal, state and local government web resources and services.